sat.trackr.live / text

‹ back to catalog

BEIDOU-3 M12 (C26)

NORAD 43602 · 2018-067A

PAYLOAD ACTIVE UNKNOWN

§ Identity

Operator
Country
PRC
Launch date
2018-08-24
Launch site
XICLF
Launch vehicle
Mass (kg)
RCS (m²)

Purposes: nav

External: N2YO · Heavens-Above · Gunter

§ Orbital elements

Epoch: 2026-09-19T22:49:04.056960Z

Period
773.25 min
Inclination
54.1778°
Eccentricity
0.0008956
Mean motion
1.86227644 rev/d
Perigee alt
21,503.4 km
Apogee alt
21,553.4 km
Semi-major
27,906.5 km
B*
0.0000e+0
RAAN
177.8282°
Arg perigee
37.1570°
Mean anomaly
322.9275°
Rev number
5,488

§ Raw data

BEIDOU-3 M12 (C26)1 43602U 18067A   26262.95074140 -.00000029  00000+0  00000+0 0  99952 43602  54.1778 177.8282 0008956  37.1570 322.9275  1.86227644 54880

JSON: /api/v1/satellites/43602 · /tle

For live sub-satellite position, see the globe view (requires WebGL).

§ Visibility from observer

Set your observer location to see the next 7 days of passes ≥ 10°. The values pass through the URL so the page stays shareable.

No JS? Fill the form by hand. The geolocation button needs JavaScript.